• In Belgium
  • List of Countries
  • For 7 days
  • Water Temperature
  • Satellite Maps
  • Weather Map
  • Weather Widgets
  • user-avatar
    Login

    Hourly Weather Nivelles

    Today, 25 April, Wednesday

    Time Temperature Precipitation Wind Pressure Humidity
    00:00 +12°C° 0 mm 4 mps 747 mmHg 89%
    01:00 +11°C° 0 mm 4 mps 747 mmHg 89%
    02:00 +10°C° 0 mm 5 mps 747 mmHg 90%
    03:00 +10°C° 0 mm 5 mps 747 mmHg 90%
    04:00 +10°C° 0.1 mm 5 mps 747 mmHg 89%
    05:00 +10°C° 0.1 mm 5 mps 747 mmHg 88%
    06:00 +10°C° 0.1 mm 5 mps 748 mmHg 86%
    07:00 +10°C° 0.1 mm 6 mps 748 mmHg 83%
    08:00 +11°C° 0.1 mm 6 mps 749 mmHg 80%
    09:00 +11°C° 0.1 mm 6 mps 749 mmHg 77%
    10:00 +13°C° 0.2 mm 6 mps 749 mmHg 73%
    11:00 +13°C° 0.2 mm 6 mps 749 mmHg 69%
    12:00 +14°C° 0.2 mm 6 mps 749 mmHg 65%
    13:00 +14°C° 0.2 mm 7 mps 749 mmHg 64%
    14:00 +14°C° 0.2 mm 7 mps 749 mmHg 63%
    15:00 +14°C° 0.2 mm 7 mps 749 mmHg 62%
    16:00 +13°C° 0.1 mm 6 mps 749 mmHg 65%
    17:00 +11°C° 0.1 mm 6 mps 750 mmHg 67%
    18:00 +10°C° 0.1 mm 5 mps 750 mmHg 70%
    19:00 +9°C° 0 mm 5 mps 750 mmHg 73%
    20:00 +8°C° 0 mm 5 mps 750 mmHg 76%
    21:00 +7°C° 0 mm 5 mps 751 mmHg 79%
    22:00 +6°C° 0 mm 5 mps 751 mmHg 81%
    23:00 +6°C° 0 mm 5 mps 751 mmHg 84%

    Tomorrow, 26 April, Thursday

    Time Temperature Precipitation Wind Pressure Humidity
    00:00 +6°C° 0 mm 5 mps 751 mmHg 86%
    01:00 +6°C° 0 mm 5 mps 751 mmHg 87%
    02:00 +5°C° 0 mm 5 mps 751 mmHg 87%
    03:00 +5°C° 0 mm 5 mps 751 mmHg 88%
    04:00 +5°C° 0 mm 5 mps 752 mmHg 86%
    05:00 +6°C° 0 mm 5 mps 752 mmHg 84%
    06:00 +6°C° 0 mm 5 mps 752 mmHg 82%
    07:00 +7°C° 0 mm 6 mps 752 mmHg 77%
    08:00 +8°C° 0 mm 6 mps 753 mmHg 71%
    09:00 +10°C° 0 mm 7 mps 753 mmHg 65%
    10:00 +10°C° 0.1 mm 7 mps 753 mmHg 62%
    11:00 +11°C° 0.1 mm 7 mps 753 mmHg 59%
    12:00 +13°C° 0.1 mm 6 mps 753 mmHg 55%
    13:00 +13°C° 0.2 mm 6 mps 753 mmHg 55%
    14:00 +13°C° 0.2 mm 6 mps 753 mmHg 54%
    15:00 +13°C° 0.2 mm 6 mps 753 mmHg 54%
    16:00 +12°C° 0.1 mm 5 mps 752 mmHg 59%
    17:00 +11°C° 0.1 mm 4 mps 752 mmHg 63%
    18:00 +11°C° 0.1 mm 3 mps 752 mmHg 68%
    19:00 +9°C° 0 mm 3 mps 753 mmHg 71%
    20:00 +8°C° 0 mm 2 mps 753 mmHg 74%
    21:00 +6°C° 0 mm 2 mps 753 mmHg 77%
    22:00 +6°C° 0 mm 2 mps 753 mmHg 78%
    23:00 +6°C° 0 mm 2 mps 752 mmHg 79%

    Day after tomorrow, 27 April, Friday

    Time Temperature Precipitation Wind Pressure Humidity
    00:00 +6°C° 0 mm 2 mps 752 mmHg 80%
    01:00 +5°C° 0 mm 2 mps 751 mmHg 80%
    02:00 +5°C° 0 mm 2 mps 751 mmHg 81%
    03:00 +5°C° 0 mm 2 mps 750 mmHg 81%
    04:00 +5°C° 0 mm 3 mps 750 mmHg 80%
    05:00 +7°C° 0 mm 3 mps 749 mmHg 79%
    06:00 +6°C° 0 mm 4 mps 749 mmHg 78%
    07:00 +8°C° 0 mm 4 mps 748 mmHg 73%
    08:00 +10°C° 0 mm 5 mps 748 mmHg 68%
    09:00 +11°C° 0 mm 6 mps 747 mmHg 62%
    10:00 +14°C° 0 mm 6 mps 747 mmHg 60%
    11:00 +15°C° 0 mm 6 mps 747 mmHg 57%
    12:00 +16°C° 0 mm 7 mps 746 mmHg 54%
    13:00 +16°C° 0 mm 7 mps 746 mmHg 56%
    14:00 +16°C° 0 mm 7 mps 745 mmHg 58%
    15:00 +16°C° 0 mm 7 mps 745 mmHg 60%
    16:00 +15°C° 0.1 mm 6 mps 745 mmHg 64%
    17:00 +14°C° 0.1 mm 6 mps 745 mmHg 69%
    18:00 +13°C° 0.1 mm 6 mps 745 mmHg 73%
    19:00 +10°C° 0 mm 6 mps 746 mmHg 74%
    20:00 +9°C° 0 mm 6 mps 746 mmHg 75%
    21:00 +8°C° 0 mm 6 mps 746 mmHg 77%
    22:00 +7°C° 0 mm 6 mps 747 mmHg 78%
    23:00 +7°C° 0 mm 6 mps 747 mmHg 80%

    28 April, Saturday

    Time Temperature Precipitation Wind Pressure Humidity
    00:00 +5°C° 0 mm 6 mps 747 mmHg 82%
    01:00 +6°C° 0 mm 5 mps 747 mmHg 84%
    02:00 +5°C° 0 mm 5 mps 748 mmHg 86%
    03:00 +5°C° 0 mm 5 mps 748 mmHg 88%
    04:00 +5°C° 0 mm 5 mps 748 mmHg 87%
    05:00 +6°C° 0 mm 4 mps 748 mmHg 87%
    06:00 +6°C° 0 mm 4 mps 749 mmHg 86%
    07:00 +7°C° 0 mm 4 mps 749 mmHg 83%
    08:00 +8°C° 0 mm 3 mps 750 mmHg 80%
    09:00 +9°C° 0 mm 3 mps 750 mmHg 76%
    10:00 +10°C° 0 mm 2 mps 750 mmHg 74%
    11:00 +10°C° 0 mm 2 mps 750 mmHg 71%
    12:00 +10°C° 0 mm 2 mps 750 mmHg 68%
    13:00 +12°C° 0 mm 1 mps 750 mmHg 66%
    14:00 +12°C° 0 mm 1 mps 749 mmHg 65%
    15:00 +12°C° 0 mm 1 mps 749 mmHg 63%
    16:00 +12°C° 0 mm 2 mps 749 mmHg 66%
    17:00 +12°C° 0 mm 2 mps 749 mmHg 69%
    18:00 +10°C° 0 mm 3 mps 749 mmHg 72%
    19:00 +10°C° 0 mm 3 mps 749 mmHg 72%
    20:00 +8°C° 0 mm 4 mps 749 mmHg 72%
    21:00 +8°C° 0 mm 4 mps 749 mmHg 73%
    22:00 +7°C° 1 mm 4 mps 748 mmHg 77%
    23:00 +7°C° 1 mm 5 mps 748 mmHg 82%

    29 April, Sunday

    Time Temperature Precipitation Wind Pressure Humidity
    00:00 +6°C° 1 mm 5 mps 747 mmHg 86%
    01:00 +6°C° 2.2 mm 5 mps 747 mmHg 88%
    02:00 +5°C° 2.2 mm 6 mps 746 mmHg 90%
    03:00 +5°C° 2.2 mm 6 mps 745 mmHg 92%
    04:00 +5°C° 0.1 mm 6 mps 745 mmHg 93%
    05:00 +5°C° 0.1 mm 6 mps 745 mmHg 93%
    06:00 +6°C° 0.1 mm 5 mps 745 mmHg 93%
    07:00 +6°C° 0.5 mm 5 mps 744 mmHg 93%
    08:00 +7°C° 0.5 mm 5 mps 744 mmHg 92%
    09:00 +7°C° 0.5 mm 5 mps 744 mmHg 92%
    10:00 +7°C° 0.6 mm 5 mps 744 mmHg 92%
    11:00 +8°C° 0.6 mm 5 mps 744 mmHg 91%
    12:00 +8°C° 0.6 mm 5 mps 744 mmHg 91%
    13:00 +9°C° 0.1 mm 5 mps 743 mmHg 90%
    14:00 +9°C° 0.1 mm 6 mps 743 mmHg 89%
    15:00 +10°C° 0.1 mm 6 mps 742 mmHg 88%
    16:00 +9°C° 0.2 mm 6 mps 742 mmHg 89%
    17:00 +9°C° 0.2 mm 6 mps 741 mmHg 91%
    18:00 +8°C° 0.2 mm 6 mps 741 mmHg 92%
    19:00 +8°C° 0.6 mm 6 mps 741 mmHg 93%
    20:00 +8°C° 0.6 mm 7 mps 740 mmHg 93%
    21:00 +8°C° 0.6 mm 7 mps 740 mmHg 94%
    22:00 +8°C° 3.3 mm 6 mps 740 mmHg 95%
    23:00 +7°C° 3.3 mm 6 mps 739 mmHg 95%

    30 April, Monday

    Time Temperature Precipitation Wind Pressure Humidity
    00:00 +7°C° 3.3 mm 5 mps 739 mmHg 95%
    01:00 +7°C° 2.5 mm 5 mps 739 mmHg 95%
    02:00 +7°C° 2.5 mm 6 mps 738 mmHg 95%
    03:00 +7°C° 2.5 mm 6 mps 738 mmHg 94%
    04:00 +7°C° 0.3 mm 6 mps 738 mmHg 94%
    05:00 +7°C° 0.3 mm 5 mps 738 mmHg 94%
    06:00 +7°C° 0.3 mm 5 mps 739 mmHg 95%
    07:00 +7°C° 0.4 mm 5 mps 739 mmHg 93%
    08:00 +7°C° 0.4 mm 5 mps 739 mmHg 92%
    09:00 +7°C° 0.4 mm 5 mps 740 mmHg 90%
    10:00 +7°C° 0.1 mm 5 mps 740 mmHg 88%
    11:00 +8°C° 0.1 mm 5 mps 741 mmHg 87%
    12:00 +8°C° 0.1 mm 5 mps 741 mmHg 85%
    13:00 +8°C° 0.1 mm 5 mps 741 mmHg 84%
    14:00 +8°C° 0.1 mm 5 mps 742 mmHg 84%
    15:00 +8°C° 0.1 mm 5 mps 742 mmHg 83%
    16:00 +8°C° 0.1 mm 5 mps 742 mmHg 83%
    17:00 +7°C° 0.1 mm 4 mps 743 mmHg 83%
    18:00 +8°C° 0.1 mm 3 mps 743 mmHg 83%
    19:00 +8°C° 0 mm 3 mps 743 mmHg 84%
    20:00 +7°C° 0 mm 3 mps 744 mmHg 85%
    21:00 +7°C° 0 mm 3 mps 744 mmHg 86%
    22:00 +5°C° 0 mm 4 mps 745 mmHg 86%
    23:00 +5°C° 0 mm 4 mps 745 mmHg 87%
    Show more